EW2889 Weather Reports


Display with metric or nautical units.
time (UTC)temp
F
wind
direction
speed
MPH
gust
MPH
rain 1hr
in
rain 24hr
in
rain mn
in
humidity
%
barometer
mb
20260507180124 52 58 0.0 4.0 0.08 1.25 1.25 96 1009.6
20260507174515 52 28 0.0 1.0 0.08 1.23 1.23 97 1010.4
20260507173035 53 94 0.0 0.0 0.08 1.21 1.21 97 1010.6
20260507171552 52 43 0.0 0.0 0.08 1.19 1.19 96 1010.7
20260507170010 53 84 0.0 2.0 0.11 1.15 1.15 96 1011.1
20260507164531 53 94 0.0 1.0 0.26 1.13 1.13 97 1010.9
20260507163044 52 41 0.0 0.0 0.38 1.12 1.12 96 1011.1
20260507161609 52 32 0.0 0.0 0.43 1.11 1.11 96 1011.0
20260507160031 54 98 0.0 3.0 0.48 1.05 1.05 96 1010.7
20260507154551 55 91 0.0 9.0 0.37 0.88 0.88 96 1010.8
20260507153116 56 70 0.0 0.0 0.26 0.75 0.75 96 1010.9
20260507151505 57 8 0.0 2.0 0.20 0.67 0.67 96 1010.9
20260507150029 57 49 0.0 2.0 0.11 0.56 0.56 96 1010.7
20260507144549 58 36 0.0 1.0 0.05 0.51 0.51 96 1010.8
20260507143111 59 46 0.0 4.0 0.05 0.49 0.49 96 1010.6
20260507141531 59 47 0.0 4.0 0.04 0.47 0.47 96 1010.3
20260507140041 60 30 0.0 5.0 0.05 0.46 0.46 96 1010.4
20260507134558 60 63 0.0 0.0 0.08 0.46 0.46 96 1010.2
20260507133011 60 23 0.0 0.0 0.09 0.44 0.44 96 1010.2
20260507131526 60 150 0.0 0.0 0.11 0.43 0.43 96 1010.3
20260507130046 60 29 0.0 0.0 0.19 0.41 0.41 96 1010.5
20260507124604 61 326 0.0 0.0 0.23 0.38 0.38 95 1010.6
20260507123018 62 169 0.0 1.0 0.24 0.35 0.35 94 1010.4
20260507121544 65 289 0.0 0.0 0.24 0.32 0.32 95 1010.2
20260507120054 66 34 0.0 0.0 0.16 0.22 0.22 96 1010.3
20260507114521 66 35 0.0 0.0 0.10 0.14 0.14 96 1010.0
20260507113030 66 35 0.0 0.0 0.08 0.11 0.11 95 1010.0
20260507111549 66 35 0.0 0.0 0.06 0.08 0.08 95 1010.0
20260507110001 66 35 0.0 0.0 0.05 0.06 0.06 95 1009.9
20260507104536 66 35 0.0 0.0 0.04 0.04 0.04 94 1009.8
20260507103058 67 96 0.0 0.0 0.03 0.03 0.03 93 1009.7
20260507101510 67 20 0.0 0.0 0.02 0.02 0.02 92 1009.4
20260507100045 67 189 0.0 0.0 0.01 0.01 0.01 91 1009.1
20260507094553 67 281 0.0 0.0 0.01 0.01 0.01 90 1009.2
20260507093008 68 254 0.0 0.0 0.00 0.00 0.00 89 1009.0
20260507091513 68 131 0.0 0.0 0.00 0.00 0.00 88 1008.9
20260507090026 68 307 0.0 0.0 0.00 0.00 0.00 88 1009.1
20260507084553 68 304 0.0 0.0 0.00 0.00 0.00 87 1009.4
20260507083015 69 319 0.0 0.0 0.00 0.00 0.00 86 1009.6
20260507081556 69 278 0.0 0.0 0.00 0.00 0.00 84 1009.7
20260507080002 69 262 0.0 0.0 0.00 0.00 0.00 83 1009.7
20260507074521 69 301 0.0 0.0 0.00 0.00 0.00 84 1010.0
20260507073036 69 282 0.0 0.0 0.00 0.00 0.00 85 1009.8
20260507071554 68 127 0.0 0.0 0.00 0.00 0.00 85 1010.1
20260507070011 69 262 0.0 0.0 0.00 0.00 0.00 85 1009.8
20260507064601 69 259 0.0 0.0 0.00 0.00 0.00 84 1009.5
20260507063109 69 149 0.0 0.0 0.00 0.00 0.00 83 1009.3
20260507061509 69 97 0.0 0.0 0.00 0.00 0.00 83 1010.3
20260507060026 69 290 0.0 0.0 0.00 0.00 0.00 81 1010.7
20260507054552 70 258 0.0 0.0 0.00 0.00 0.00 79 1010.8
20260507053001 71 306 0.0 0.0 0.00 0.00 0.00 76 1010.9
20260507051530 71 252 0.0 0.0 0.00 0.00 0.00 73 1010.9
20260507050050 71 281 0.0 0.0 0.00 0.00 0.00 72 1010.8
20260507044502 71 212 0.0 0.0 0.00 0.00 0.00 71 1010.6
20260507043020 71 245 0.0 0.0 0.00 0.00 0.00 71 1010.7
20260507041545 71 258 0.0 0.0 0.00 0.00 0.00 71 1010.8
20260507040004 72 96 0.0 0.0 0.00 0.00 0.00 71 1010.7
20260507034516 72 210 0.0 0.0 0.00 0.00 0.00 71 1010.3
20260507033036 72 260 0.0 0.0 0.00 0.00 0.00 72 1010.4
20260507031553 72 125 0.0 0.0 0.00 0.00 0.00 72 1010.4
20260507030026 72 192 0.0 0.0 0.00 0.00 0.00 71 1010.7
20260507024533 73 192 0.0 0.0 0.00 0.00 0.00 70 1010.7
20260507023050 73 192 0.0 0.0 0.00 0.00 0.00 71 1010.9
20260507021502 74 192 0.0 0.0 0.00 0.00 0.00 71 1010.9
20260507020018 74 192 0.0 0.0 0.00 0.00 0.00 71 1010.9
20260507014556 74 153 0.0 0.0 0.00 0.00 0.00 71 1011.2
20260507013001 74 161 0.0 0.0 0.00 0.00 0.00 69 1010.9
20260507011553 75 161 0.0 0.0 0.00 0.00 0.00 67 1011.0
20260507010004 75 152 0.0 0.0 0.00 0.00 0.00 66 1011.0
20260507004519 75 179 0.0 0.0 0.00 0.00 0.00 66 1010.9
20260507003045 75 297 0.0 0.0 0.00 0.00 0.00 65 1010.7
20260507001611 76 297 0.0 0.0 0.00 0.00 0.00 63 1010.5
20260507000016 76 297 0.0 0.0 0.00 0.00 0.00 62 1010.3
20260506234534 77 297 0.0 0.0 0.00 0.00 0.00 61 1010.3
20260506233053 77 297 0.0 0.0 0.00 0.00 0.00 60 1010.0
20260506231516 77 265 0.0 0.0 0.00 0.00 0.00 59 1010.1
20260506230043 78 303 0.0 0.0 0.00 0.00 0.00 59 1009.9
20260506224548 78 60 0.0 0.0 0.00 0.00 0.00 58 1009.7
20260506223103 78 283 0.0 0.0 0.00 0.00 0.00 57 1009.9
20260506221514 79 278 0.0 0.0 0.00 0.00 0.00 58 1009.9
20260506220055 79 300 0.0 0.0 0.00 0.00 0.00 58 1009.9
20260506214603 79 203 0.0 0.0 0.00 0.00 0.00 58 1009.8
20260506213016 79 323 0.0 0.0 0.00 0.00 0.00 58 1009.5
20260506211536 79 146 0.0 0.0 0.00 0.00 0.00 58 1009.6
20260506210057 79 102 0.0 3.0 0.00 0.00 0.00 58 1009.9
20260506204608 79 321 0.0 1.0 0.00 0.00 0.00 58 1010.2
20260506203016 79 255 0.0 0.0 0.00 0.00 0.00 58 1010.5
20260506201539 79 274 0.0 0.0 0.00 0.00 0.00 59 1010.8
20260506200048 79 116 0.0 1.0 0.00 0.00 0.00 59 1011.1
20260506194510 79 256 0.0 1.0 0.00 0.00 0.00 60 1011.4
20260506193002 79 315 0.0 6.0 0.00 0.00 0.00 62 1011.3
20260506191521 78 259 0.0 0.0 0.00 0.00 0.00 64 1011.4
20260506190046 77 282 0.0 0.0 0.00 0.00 0.00 65 1011.6
20260506184518 78 297 0.0 5.0 0.00 0.00 0.00 63 1011.9
20260506183026 78 285 0.0 0.0 0.00 0.00 0.00 62 1012.0
20260506181551 78 275 0.0 0.0 0.00 0.00 0.00 62 1012.3